This demonstration page uses our WeatherBlox Daily Observations layout. Learn more.

Left ArrowRight Arrow

Hourly Observations for July 1, 2021

Temp ( °F °C ) Dew Point ( °F °C ) Humidity (%) Winds ( mph kmh ) Pressure ( in mb ) Visibility ( mi km ) Precip ( " mm )
12:56 am 00:56 Cloudy 70 21.1 67 19.4 90 90 ENE 3 6 30.08 1019 10 16 0.00 0.00
1:56 am 01:56 Mostly Clear 70 21.1 67 19.4 90 90 Calm 30.07 1018 10 16 0.00 0.00
2:56 am 02:56 Cloudy 69 20.6 67 19.4 93 93 ENE 5 7 30.06 1018 9 14 0.00 0.00
3:56 am 03:56 Clear with Mist and Fog 67 19.4 66 18.9 97 97 Calm 30.06 1018 6 10 0.00 0.00
4:52 am 04:52 Clear with Mist and Fog 66 19 64 18 94 94 Calm 30.04 1017 2 3 0.00 0.00
4:56 am 04:56 Clear with Mist and Fog 66 18.9 65 18.3 96 96 Calm 30.06 1018 2 3 0.00 0.00
5:28 am 05:28 Clear with Mist and Fog 64 18 63 17 94 94 ENE 5 7 30.06 1018 2 2 0.00 0.00
5:38 am 05:38 Clear with Mist and Fog 64 18 63 17 94 94 NE 5 7 30.06 1018 3 4 0.00 0.00
5:56 am 05:56 Partly Cloudy with Mist and Fog 63 17.2 63 17.2 100 100 NE 5 7 30.08 1019 2 3 0.00 0.00
6:49 am 06:49 Mostly Cloudy with Mist and Fog 64 18 63 17 94 94 NNE 5 7 30.07 1018 3 5 0.00 0.00
6:56 am 06:56 Partly Cloudy with Mist and Fog 65 18.3 63 17.2 93 93 NNE 5 7 30.08 1019 3 4 0.00 0.00
7:42 am 07:42 Partly Cloudy with Mist and Fog 66 19 64 18 94 94 NE 5 7 30.07 1018 3 5 0.00 0.00
7:56 am 07:56 Partly Cloudy with Mist and Fog 67 19.4 65 18.3 93 93 ENE 5 7 30.09 1019 3 4 0.00 0.00
8:06 am 08:06 Sunny with Mist and Fog 68 20 64 18 88 88 ENE 5 7 30.07 1018 3 5 0.00 0.00
8:56 am 08:56 Sunny 71 21.7 64 17.8 79 79 E 7 11 30.10 1019 10 16 0.00 0.00
9:56 am 09:56 Sunny 75 23.9 63 17.2 66 66 E 6 9 30.11 1020 10 16 0.00 0.00
10:56 am 10:56 Sunny 78 25.6 62 16.7 58 58 E 8 13 30.11 1020 10 16 0.00 0.00
11:56 am 11:56 Mostly Sunny 78 25.6 63 17.2 60 60 ENE 9 15 30.11 1020 10 16 0.00 0.00
12:56 pm 12:56 Mostly Sunny 80 26.7 63 17.2 56 56 ESE 10 17 30.10 1019 10 16 0.00 0.00
1:56 pm 13:56 Mostly Sunny 81 27.2 62 16.7 53 53 E 13 20 30.09 1019 10 16 0.00 0.00
2:56 pm 14:56 Sunny 81 27.2 61 16.1 51 51 E 9 15 30.07 1018 10 16 0.00 0.00
3:56 pm 15:56 Sunny 81 27.2 61 16.1 51 51 E 8 13 30.06 1018 10 16 0.00 0.00
4:56 pm 16:56 Mostly Sunny 82 27.8 62 16.7 51 51 SE 7 11 30.06 1018 10 16 0.00 0.00
5:56 pm 17:56 Sunny 82 27.8 62 16.7 51 51 E 9 15 30.04 1017 10 16 0.00 0.00
6:56 pm 18:56 Mostly Sunny 80 26.7 62 16.7 54 54 E 8 13 30.05 1018 10 16 0.00 0.00
7:56 pm 19:56 Sunny 79 26.1 64 17.8 60 60 ESE 8 13 30.06 1018 10 16 0.00 0.00
8:56 pm 20:56 Mostly Sunny 73 22.8 65 18.3 76 76 ESE 7 11 30.08 1019 10 16 0.00 0.00
9:56 pm 21:56 Clear 70 21.1 64 17.8 82 82 SE 6 9 30.08 1019 10 16 0.00 0.00
10:56 pm 22:56 Clear 67 19.4 63 17.2 87 87 E 5 7 30.09 1019 10 16 0.00 0.00
11:56 pm 23:56 Clear 67 19.4 63 17.2 87 87 ESE 3 6 30.11 1020 10 16 0.00 0.00

Powered by AerisWeather